Regional Weather Roundup
Issued by NWS

Home | Current Version | Previous Version | Graphics & Text | Print | Product List | Glossary Off
Versions: 1 2 3 4 5 6 7 8 9 10 11 12 13 14 15 16 17 18 19 20 21 22 23 24 25 26 27 28 29 30 31 32 33 34 35 36 37 38 39 40 41 42 43 44 45 46 47 48 49 50

000
ASUS43 KLMK 221010
RWRKY
KENTUCKY REGIONAL WEATHER ROUNDUP
NATIONAL WEATHER SERVICE LOUISVILLE KY
600 AM EDT SAT JUL 22 2017

NOTE "FAIR" INDICATES FEW OR NO CLOUDS BELOW 12,000 FEET
WITH NO SIGNIFICANT WEATHER AND/OR OBSTRUCTIONS TO VISIBILITY.

KYZ001>023-026-027-061>063-070>075-221100-
WESTERN AND SOUTH CENTRAL KENTUCKY

CITY           SKY/WX    TMP DP  RH WIND       PRES   REMARKS
PADUCAH        CLEAR     78  73  84 SW5       29.91S
HENDERSON      CLEAR     76  74  93 SW5       29.91F
OWENSBORO      CLEAR     77  75  93 S5        29.92F
HOPKINSVILLE   CLEAR     78  75  92 SW5       29.95R
BOWLING GREEN  CLEAR     80  77  90 SW5       29.95S
GLASGOW        CLEAR     75  75 100 CALM      29.96S FOG
$$

KYZ024-025-028>034-038-045-046-053-221100-
NORTH CENTRAL KENTUCKY

CITY           SKY/WX    TMP DP  RH WIND       PRES   REMARKS
LOUISVILLE/SDF CLEAR     82  75  79 SW7       29.91S
LOUISVILLE/LOU CLEAR     81  77  88 SW6       29.92S
FORT KNOX      CLEAR     76  74  93 SW3       29.93R
$$

KYZ035>037-039>044-047>052-055>060-089>105-221100-
NORTHEAST KENTUCKY

CITY           SKY/WX    TMP DP  RH WIND       PRES   REMARKS
LEXINGTON      CLEAR     77  71  82 S7        29.95S
COVINGTON      CLOUDY    78  76  93 S9        29.90F
FRANKFORT      PTCLDY    78  72  81 SW5       29.93S
$$

KYZ054-064>069-076>088-106>120-221100-
SOUTHEAST KENTUCKY

CITY           SKY/WX    TMP DP  RH WIND       PRES   REMARKS
JACKSON        CLEAR     75  71  87 CALM      29.99R
LONDON         CLEAR     73  70  90 CALM      30.00R
SOMERSET       CLEAR     70  70 100 CALM      29.99S
MIDDLESBORO    CLEAR     70  70 100 CALM      30.03R
MONTICELLO     SUNNY     71  70  96 NE7       30.00R FOG
$$





USA.gov is the U.S. government's official web portal to all federal, state and local government web resources and services.